Terminal Aerodrome Forecast
Issued by NWS

Home | Current Version | Previous Version | Text Only | Print | Product List | Glossary Off
Versions: 1 2 3 4 5 6 7 8 9 10 11 12 13 14 15 16 17 18

000
FTUS43 KGRB 250900 AAB
TAFCWA
TAF AMD
KCWA 250941Z 2510/2606 30010KT 5SM -SN SCT012 OVC030
     FM251500 28007KT P6SM BKN035 BKN100
     FM251900 27007KT P6SM FEW030 SCT100
     FM252300 23003KT P6SM FEW100
      AMD LTD TO CLD VIS AND WIND TIL 251200=

USA.gov is the U.S. government's official web portal to all federal, state and local government web resources and services.